Year,Month,Day,Hour,Minute,Value (Times are PST for temperature in C)
2017,09,29,00,00,15.70
2017,09,29,00,01,15.70
2017,09,29,00,02,15.70
2017,09,29,00,03,15.70
2017,09,29,00,04,15.70
2017,09,29,00,05,15.70
2017,09,29,00,06,15.70
2017,09,29,00,07,15.70
2017,09,29,00,08,15.80
2017,09,29,00,09,15.80
2017,09,29,00,10,15.80
2017,09,29,00,11,15.80
2017,09,29,00,12,15.80
2017,09,29,00,13,15.80
2017,09,29,00,14,15.80
2017,09,29,00,15,15.80
2017,09,29,00,16,15.80
2017,09,29,00,17,15.80
2017,09,29,00,18,15.80
2017,09,29,00,19,15.80
2017,09,29,00,20,15.70
2017,09,29,00,21,15.70
2017,09,29,00,22,15.70
2017,09,29,00,23,15.60
2017,09,29,00,24,15.60
2017,09,29,00,25,15.50
2017,09,29,00,26,15.50
2017,09,29,00,27,15.40
2017,09,29,00,28,15.30
2017,09,29,00,29,15.30
2017,09,29,00,30,15.30
2017,09,29,00,31,15.20
2017,09,29,00,32,15.10
2017,09,29,00,33,15.00
2017,09,29,00,34,15.00
2017,09,29,00,35,15.00
2017,09,29,00,36,15.00
2017,09,29,00,37,14.90
2017,09,29,00,38,14.90
2017,09,29,00,39,14.80
2017,09,29,00,40,14.70
2017,09,29,00,41,14.70
2017,09,29,00,42,14.60
2017,09,29,00,43,14.60
2017,09,29,00,44,14.50
2017,09,29,00,45,14.50
2017,09,29,00,46,14.40
2017,09,29,00,47,14.40
2017,09,29,00,48,14.30
2017,09,29,00,49,14.30
2017,09,29,00,50,14.30
2017,09,29,00,51,14.30
2017,09,29,00,52,14.20
2017,09,29,00,53,14.20
2017,09,29,00,54,14.20
2017,09,29,00,55,14.10
2017,09,29,00,56,14.10
2017,09,29,00,57,14.10
2017,09,29,00,58,14.00
2017,09,29,00,59,14.00
2017,09,29,01,00,14.00
2017,09,29,01,01,13.90
2017,09,29,01,02,13.90
2017,09,29,01,03,13.90
2017,09,29,01,04,13.80
2017,09,29,01,05,13.80
2017,09,29,01,06,13.80
2017,09,29,01,07,13.80
2017,09,29,01,08,13.80
2017,09,29,01,09,13.80
2017,09,29,01,10,13.80
2017,09,29,01,11,13.70
2017,09,29,01,12,13.70
2017,09,29,01,13,13.70
2017,09,29,01,14,13.70
2017,09,29,01,15,13.70
2017,09,29,01,16,13.70
2017,09,29,01,17,13.60
2017,09,29,01,18,13.60
2017,09,29,01,19,13.60
2017,09,29,01,20,13.60
2017,09,29,01,21,13.60
2017,09,29,01,22,13.60
2017,09,29,01,23,13.60
2017,09,29,01,24,13.60
2017,09,29,01,25,13.60
2017,09,29,01,26,13.60
2017,09,29,01,27,13.60
2017,09,29,01,28,13.60
2017,09,29,01,29,13.60
2017,09,29,01,30,13.60
2017,09,29,01,31,13.60
2017,09,29,01,32,13.60
2017,09,29,01,33,13.60
2017,09,29,01,34,13.60
2017,09,29,01,35,13.60
2017,09,29,01,36,13.80
2017,09,29,01,37,13.90
2017,09,29,01,38,14.00
2017,09,29,01,39,14.00
2017,09,29,01,40,14.10
2017,09,29,01,41,14.10
2017,09,29,01,42,14.20
2017,09,29,01,43,14.30
2017,09,29,01,44,14.30
2017,09,29,01,45,14.40
2017,09,29,01,46,14.50
2017,09,29,01,47,14.50
2017,09,29,01,48,14.60
2017,09,29,01,49,14.70
2017,09,29,01,50,14.90
2017,09,29,01,51,15.00
2017,09,29,01,52,15.00
2017,09,29,01,53,15.00
2017,09,29,01,54,15.20
2017,09,29,01,55,15.30
2017,09,29,01,56,15.30
2017,09,29,01,57,15.40
2017,09,29,01,58,15.40
2017,09,29,01,59,15.50
2017,09,29,02,00,15.50
2017,09,29,02,01,15.60
2017,09,29,02,02,15.60
2017,09,29,02,03,15.70
2017,09,29,02,04,15.70
2017,09,29,02,05,15.80
2017,09,29,02,06,15.80
2017,09,29,02,07,15.80
2017,09,29,02,08,15.80
2017,09,29,02,09,15.80
2017,09,29,02,10,15.80
2017,09,29,02,11,15.80
2017,09,29,02,12,15.80
2017,09,29,02,13,15.70
2017,09,29,02,14,15.60
2017,09,29,02,15,15.60
2017,09,29,02,16,15.50
2017,09,29,02,17,15.40
2017,09,29,02,18,15.40
2017,09,29,02,19,15.40
2017,09,29,02,20,15.40
2017,09,29,02,21,15.40
2017,09,29,02,22,15.40
2017,09,29,02,23,15.40
2017,09,29,02,24,15.40
2017,09,29,02,25,15.30
2017,09,29,02,26,15.30
2017,09,29,02,27,15.20
2017,09,29,02,28,15.20
2017,09,29,02,29,15.10
2017,09,29,02,30,15.00
2017,09,29,02,31,15.00
2017,09,29,02,32,15.00
2017,09,29,02,33,15.00
2017,09,29,02,34,15.00
2017,09,29,02,35,14.90
2017,09,29,02,36,14.90
2017,09,29,02,37,14.80
2017,09,29,02,38,14.80
2017,09,29,02,39,14.80
2017,09,29,02,40,14.70
2017,09,29,02,41,14.70
2017,09,29,02,42,14.70
2017,09,29,02,43,14.70
2017,09,29,02,44,14.60
2017,09,29,02,45,14.60
2017,09,29,02,46,14.60
2017,09,29,02,47,14.50
2017,09,29,02,48,14.50
2017,09,29,02,49,14.50
2017,09,29,02,50,14.40
2017,09,29,02,51,14.40
2017,09,29,02,52,14.40
2017,09,29,02,53,14.40
2017,09,29,02,54,14.40
2017,09,29,02,55,14.40
2017,09,29,02,56,14.30
2017,09,29,02,57,14.30
2017,09,29,02,58,14.30
2017,09,29,02,59,14.30
2017,09,29,03,00,14.30
2017,09,29,03,01,14.30
2017,09,29,03,02,14.30
2017,09,29,03,03,14.30
2017,09,29,03,04,14.30
2017,09,29,03,05,14.30
2017,09,29,03,06,14.20
2017,09,29,03,07,14.20
2017,09,29,03,08,14.20
2017,09,29,03,09,14.20
2017,09,29,03,10,14.20
2017,09,29,03,11,14.20
2017,09,29,03,12,14.20
2017,09,29,03,13,14.20
2017,09,29,03,14,14.20
2017,09,29,03,15,14.20
2017,09,29,03,16,14.20
2017,09,29,03,17,14.20
2017,09,29,03,18,14.20
2017,09,29,03,19,14.20
2017,09,29,03,20,14.20
2017,09,29,03,21,14.20
2017,09,29,03,22,14.20
2017,09,29,03,23,14.20
2017,09,29,03,24,14.20
2017,09,29,03,25,14.20
2017,09,29,03,26,14.20
2017,09,29,03,27,14.30
2017,09,29,03,28,14.30
2017,09,29,03,29,14.40
2017,09,29,03,30,14.40
2017,09,29,03,31,14.40
2017,09,29,03,32,14.40
2017,09,29,03,33,14.50
2017,09,29,03,34,14.50
2017,09,29,03,35,14.50
2017,09,29,03,36,14.50
2017,09,29,03,37,14.50
2017,09,29,03,38,14.50
2017,09,29,03,39,14.50
2017,09,29,03,40,14.60
2017,09,29,03,41,14.60
2017,09,29,03,42,14.60
2017,09,29,03,43,14.60
2017,09,29,03,44,14.60
2017,09,29,03,45,14.60
2017,09,29,03,46,14.60
2017,09,29,03,47,14.70
2017,09,29,03,48,14.70
2017,09,29,03,49,14.70
2017,09,29,03,50,14.70
2017,09,29,03,51,14.60
2017,09,29,03,52,14.60
2017,09,29,03,53,14.60
2017,09,29,03,54,14.60
2017,09,29,03,55,14.60
2017,09,29,03,56,14.70
2017,09,29,03,57,14.70
2017,09,29,03,58,14.70
2017,09,29,03,59,14.70
2017,09,29,04,00,14.70
2017,09,29,04,01,14.70
2017,09,29,04,02,14.60
2017,09,29,04,03,14.60
2017,09,29,04,04,14.60
2017,09,29,04,05,14.60
2017,09,29,04,06,14.60
2017,09,29,04,07,14.60
2017,09,29,04,08,14.60
2017,09,29,04,09,14.60
2017,09,29,04,10,14.50
2017,09,29,04,11,14.50
2017,09,29,04,12,14.50
2017,09,29,04,13,14.40
2017,09,29,04,14,14.40
2017,09,29,04,15,14.40
2017,09,29,04,16,14.40
2017,09,29,04,17,14.40
2017,09,29,04,18,14.30
2017,09,29,04,19,14.30
2017,09,29,04,20,14.30
2017,09,29,04,21,14.30
2017,09,29,04,22,14.30
2017,09,29,04,23,14.30
2017,09,29,04,24,14.30
2017,09,29,04,25,14.30
2017,09,29,04,26,14.30
2017,09,29,04,27,14.30
2017,09,29,04,28,14.30
2017,09,29,04,29,14.30
2017,09,29,04,30,14.30
2017,09,29,04,31,14.30
2017,09,29,04,32,14.30
2017,09,29,04,33,14.30
2017,09,29,04,34,14.30
2017,09,29,04,35,14.30
2017,09,29,04,36,14.30
2017,09,29,04,37,14.20
2017,09,29,04,38,14.30
2017,09,29,04,39,14.30
2017,09,29,04,40,14.30
2017,09,29,04,41,14.30
2017,09,29,04,42,14.30
2017,09,29,04,43,14.30
2017,09,29,04,44,14.40
2017,09,29,04,45,14.40
2017,09,29,04,46,14.40
2017,09,29,04,47,14.40
2017,09,29,04,48,14.40
2017,09,29,04,49,14.40
2017,09,29,04,50,14.40
2017,09,29,04,51,14.40
2017,09,29,04,52,14.40
2017,09,29,04,53,14.40
2017,09,29,04,54,14.40
2017,09,29,04,55,14.40
2017,09,29,04,56,14.30
2017,09,29,04,57,14.30
2017,09,29,04,58,14.30
2017,09,29,04,59,14.30
2017,09,29,05,00,14.30
2017,09,29,05,01,14.20
2017,09,29,05,02,14.20
2017,09,29,05,03,14.20
2017,09,29,05,04,14.20
2017,09,29,05,05,14.20
2017,09,29,05,06,14.20
2017,09,29,05,07,14.20
2017,09,29,05,08,14.20
2017,09,29,05,09,14.30
2017,09,29,05,10,14.30
2017,09,29,05,11,14.30
2017,09,29,05,12,14.30
2017,09,29,05,13,14.30
2017,09,29,05,14,14.30
2017,09,29,05,15,14.30
2017,09,29,05,16,14.30
2017,09,29,05,17,14.30
2017,09,29,05,18,14.40
2017,09,29,05,19,14.40
2017,09,29,05,20,14.40
2017,09,29,05,21,14.40
2017,09,29,05,22,14.40
2017,09,29,05,23,14.40
2017,09,29,05,24,14.40
2017,09,29,05,25,14.30
2017,09,29,05,26,14.30
2017,09,29,05,27,14.30
2017,09,29,05,28,14.30
2017,09,29,05,29,14.30
2017,09,29,05,30,14.30
2017,09,29,05,31,14.20
2017,09,29,05,32,14.20
2017,09,29,05,33,14.20
2017,09,29,05,34,14.20
2017,09,29,05,35,14.20
2017,09,29,05,36,14.20
2017,09,29,05,37,14.20
2017,09,29,05,38,14.20
2017,09,29,05,39,14.20
2017,09,29,05,40,14.20
2017,09,29,05,41,14.20
2017,09,29,05,42,14.20
2017,09,29,05,43,14.10
2017,09,29,05,44,14.10
2017,09,29,05,45,14.10
2017,09,29,05,46,14.10
2017,09,29,05,47,14.10
2017,09,29,05,48,14.10
2017,09,29,05,49,14.10
2017,09,29,05,50,14.10
2017,09,29,05,51,14.10
2017,09,29,05,52,14.10
2017,09,29,05,53,14.10
2017,09,29,05,54,14.10
2017,09,29,05,55,14.10
2017,09,29,05,56,14.10
2017,09,29,05,57,14.10
2017,09,29,05,58,14.10
2017,09,29,05,59,14.10
2017,09,29,06,00,14.10
2017,09,29,06,01,14.10
2017,09,29,06,02,14.10
2017,09,29,06,03,14.10
2017,09,29,06,04,14.10
2017,09,29,06,05,14.10
2017,09,29,06,06,14.10
2017,09,29,06,07,14.10
2017,09,29,06,08,14.10
2017,09,29,06,09,14.10
2017,09,29,06,10,14.00
2017,09,29,06,11,14.00
2017,09,29,06,12,14.00
2017,09,29,06,13,14.00
2017,09,29,06,14,14.00
2017,09,29,06,15,14.00
2017,09,29,06,16,14.00
2017,09,29,06,17,14.00
2017,09,29,06,18,13.90
2017,09,29,06,19,13.90
2017,09,29,06,20,13.90
2017,09,29,06,21,13.90
2017,09,29,06,22,13.90
2017,09,29,06,23,13.90
2017,09,29,06,24,13.90
2017,09,29,06,25,13.90
2017,09,29,06,26,13.90
2017,09,29,06,27,13.90
2017,09,29,06,28,13.90
2017,09,29,06,29,13.90
2017,09,29,06,30,13.90
2017,09,29,06,31,13.90
2017,09,29,06,32,13.90
2017,09,29,06,33,13.90
2017,09,29,06,34,13.90
2017,09,29,06,35,13.90
2017,09,29,06,36,13.90
2017,09,29,06,37,13.90
2017,09,29,06,38,13.90
2017,09,29,06,39,13.90
2017,09,29,06,40,13.90
2017,09,29,06,41,13.90
2017,09,29,06,42,13.90
2017,09,29,06,43,13.90
2017,09,29,06,44,13.90
2017,09,29,06,45,13.80
2017,09,29,06,46,13.80
2017,09,29,06,47,13.80
2017,09,29,06,48,13.80
2017,09,29,06,49,13.80
2017,09,29,06,50,13.80
2017,09,29,06,51,13.80
2017,09,29,06,52,13.80
2017,09,29,06,53,13.80
2017,09,29,06,54,13.80
2017,09,29,06,55,13.80
2017,09,29,06,56,13.80
2017,09,29,06,57,13.80
2017,09,29,06,58,13.80
2017,09,29,06,59,13.80
2017,09,29,07,00,13.80
2017,09,29,07,01,13.70
2017,09,29,07,02,13.70
2017,09,29,07,03,13.70
2017,09,29,07,04,13.70
2017,09,29,07,05,13.70
2017,09,29,07,06,13.70
2017,09,29,07,07,13.70
2017,09,29,07,08,13.70
2017,09,29,07,09,13.70
2017,09,29,07,10,13.70
2017,09,29,07,11,13.70
2017,09,29,07,12,13.70
2017,09,29,07,13,13.70
2017,09,29,07,14,13.70
2017,09,29,07,15,13.70
2017,09,29,07,16,13.60
2017,09,29,07,17,13.70
2017,09,29,07,18,13.60
2017,09,29,07,19,13.60
2017,09,29,07,20,13.60
2017,09,29,07,21,13.60
2017,09,29,07,22,13.60
2017,09,29,07,23,13.60
2017,09,29,07,24,13.60
2017,09,29,07,25,13.60
2017,09,29,07,26,13.60
2017,09,29,07,27,13.60
2017,09,29,07,28,13.60
2017,09,29,07,29,13.60
2017,09,29,07,30,13.60
2017,09,29,07,31,13.50
2017,09,29,07,32,13.50
2017,09,29,07,33,13.50
2017,09,29,07,34,13.50
2017,09,29,07,35,13.50
2017,09,29,07,36,13.50
2017,09,29,07,37,13.50
2017,09,29,07,38,13.50
2017,09,29,07,39,13.50
2017,09,29,07,40,13.50
2017,09,29,07,41,13.50
2017,09,29,07,42,13.50
2017,09,29,07,43,13.50
2017,09,29,07,44,13.50
2017,09,29,07,45,13.50
2017,09,29,07,46,13.50
2017,09,29,07,47,13.60
2017,09,29,07,48,13.50
2017,09,29,07,49,13.60
2017,09,29,07,50,13.60
2017,09,29,07,51,13.60
2017,09,29,07,52,13.60
2017,09,29,07,53,13.60
2017,09,29,07,54,13.60
2017,09,29,07,55,13.60
2017,09,29,07,56,13.60
2017,09,29,07,57,13.60
2017,09,29,07,58,13.60
2017,09,29,07,59,13.60
2017,09,29,08,00,13.60
2017,09,29,08,01,13.60
2017,09,29,08,02,13.50
2017,09,29,08,03,13.50
2017,09,29,08,04,13.50
2017,09,29,08,05,13.50
2017,09,29,08,06,13.50
2017,09,29,08,07,13.50
2017,09,29,08,08,13.50
2017,09,29,08,09,13.50
2017,09,29,08,10,13.60
2017,09,29,08,11,13.60
2017,09,29,08,12,13.60
2017,09,29,08,13,13.50
2017,09,29,08,14,13.50
2017,09,29,08,15,13.50
2017,09,29,08,16,13.50
2017,09,29,08,17,13.50
2017,09,29,08,18,13.50
2017,09,29,08,19,13.50
2017,09,29,08,20,13.50
2017,09,29,08,21,13.50
2017,09,29,08,22,13.50
2017,09,29,08,23,13.40
2017,09,29,08,24,13.50
2017,09,29,08,25,13.50
2017,09,29,08,26,13.50
2017,09,29,08,27,13.60
2017,09,29,08,28,13.60
2017,09,29,08,29,13.60
2017,09,29,08,30,13.60
2017,09,29,08,31,13.60
2017,09,29,08,32,13.50
2017,09,29,08,33,13.50
2017,09,29,08,34,13.50
2017,09,29,08,35,13.50
2017,09,29,08,36,13.40
2017,09,29,08,37,13.40
2017,09,29,08,38,13.40
2017,09,29,08,39,13.40
2017,09,29,08,40,13.40
2017,09,29,08,41,13.40
2017,09,29,08,42,13.40
2017,09,29,08,43,13.40
2017,09,29,08,44,13.40
2017,09,29,08,45,13.40
2017,09,29,08,46,13.40
2017,09,29,08,47,13.40
2017,09,29,08,48,13.40
2017,09,29,08,49,13.40
2017,09,29,08,50,13.40
2017,09,29,08,51,13.40
2017,09,29,08,52,13.40
2017,09,29,08,53,13.40
2017,09,29,08,54,13.40
2017,09,29,08,55,13.40
2017,09,29,08,56,13.40
2017,09,29,08,57,13.40
2017,09,29,08,58,13.40
2017,09,29,08,59,13.40
2017,09,29,09,00,13.40
2017,09,29,09,01,13.40
2017,09,29,09,02,13.40
2017,09,29,09,03,13.40
2017,09,29,09,04,13.50
2017,09,29,09,05,13.50
2017,09,29,09,06,13.50
2017,09,29,09,07,13.50
2017,09,29,09,08,13.50
2017,09,29,09,09,13.50
2017,09,29,09,10,13.50
2017,09,29,09,11,13.50
2017,09,29,09,12,13.50
2017,09,29,09,13,13.50
2017,09,29,09,14,13.50
2017,09,29,09,15,13.50
2017,09,29,09,16,13.60
2017,09,29,09,17,13.60
2017,09,29,09,18,13.50
2017,09,29,09,19,13.50
2017,09,29,09,20,13.50
2017,09,29,09,21,13.50
2017,09,29,09,22,13.50
2017,09,29,09,23,13.50
2017,09,29,09,24,13.50
2017,09,29,09,25,13.60
2017,09,29,09,26,13.60
2017,09,29,09,27,13.50
2017,09,29,09,28,13.50
2017,09,29,09,29,13.60
2017,09,29,09,30,13.50
2017,09,29,09,31,13.50
2017,09,29,09,32,13.50
2017,09,29,09,33,13.60
2017,09,29,09,34,13.60
2017,09,29,09,35,13.60
2017,09,29,09,36,13.60
2017,09,29,09,37,13.60
2017,09,29,09,38,13.60
2017,09,29,09,39,13.60
2017,09,29,09,40,13.60
2017,09,29,09,41,13.60
2017,09,29,09,42,13.60
2017,09,29,09,43,13.60
2017,09,29,09,44,13.70
2017,09,29,09,45,13.70
2017,09,29,09,46,13.70
2017,09,29,09,47,13.70
2017,09,29,11,35,15.00
2017,09,29,11,36,15.00
2017,09,29,11,37,15.00
2017,09,29,11,38,15.00
2017,09,29,11,39,15.00
2017,09,29,11,40,15.00
2017,09,29,11,41,15.00
2017,09,29,11,42,15.00
2017,09,29,11,43,15.00
2017,09,29,11,44,15.00
2017,09,29,11,45,15.00
2017,09,29,11,46,15.00
2017,09,29,11,47,15.00
2017,09,29,11,48,15.00
2017,09,29,11,49,15.00
2017,09,29,11,50,15.00
2017,09,29,11,51,15.00
2017,09,29,11,52,15.00
2017,09,29,11,53,15.00
2017,09,29,11,54,15.00
2017,09,29,11,55,15.00
2017,09,29,11,56,15.00
2017,09,29,11,57,15.00
2017,09,29,11,58,15.00
2017,09,29,11,59,15.00
2017,09,29,12,00,15.00
2017,09,29,12,01,15.00
2017,09,29,12,02,15.00
2017,09,29,12,03,15.00
2017,09,29,12,04,15.00
2017,09,29,12,05,15.00
2017,09,29,12,06,15.00
2017,09,29,12,07,15.00
2017,09,29,12,08,15.00
2017,09,29,12,09,15.00
2017,09,29,12,10,15.00
2017,09,29,12,11,15.00
2017,09,29,12,12,15.00
2017,09,29,12,13,15.00
2017,09,29,12,14,15.00
2017,09,29,12,15,15.00
2017,09,29,12,16,15.00
2017,09,29,12,17,15.00
2017,09,29,12,18,15.00
2017,09,29,12,19,15.00
2017,09,29,12,20,15.00
2017,09,29,12,21,15.00
2017,09,29,12,22,15.10
2017,09,29,12,23,15.10
2017,09,29,12,24,15.10
2017,09,29,12,25,15.20
2017,09,29,12,26,15.20
2017,09,29,12,27,15.20
2017,09,29,12,28,15.30
2017,09,29,12,29,15.30
2017,09,29,12,30,15.30
2017,09,29,12,31,15.30
2017,09,29,12,32,15.40
2017,09,29,12,33,15.40
2017,09,29,12,34,15.40
2017,09,29,12,35,15.40
2017,09,29,12,36,15.40
2017,09,29,12,37,15.40
2017,09,29,12,38,15.50
2017,09,29,12,39,15.50
2017,09,29,12,40,15.50
2017,09,29,12,41,15.50
2017,09,29,12,42,15.50
2017,09,29,12,43,15.50
2017,09,29,12,44,15.50
2017,09,29,12,45,15.50
2017,09,29,12,46,15.50
2017,09,29,12,47,15.50
2017,09,29,12,48,15.50
2017,09,29,12,49,15.50
2017,09,29,12,50,15.50
2017,09,29,12,51,15.50
2017,09,29,12,52,15.50
2017,09,29,12,53,15.50
2017,09,29,12,54,15.40
2017,09,29,12,55,15.40
2017,09,29,12,56,15.40
2017,09,29,12,57,15.40
2017,09,29,12,58,15.30
2017,09,29,12,59,15.30
2017,09,29,13,00,15.30
2017,09,29,13,01,15.20
2017,09,29,13,02,15.20
2017,09,29,13,03,15.20
2017,09,29,13,04,15.20
2017,09,29,13,05,15.20
2017,09,29,13,06,15.30
2017,09,29,13,07,15.30
2017,09,29,13,08,15.30
2017,09,29,13,09,15.30
2017,09,29,13,10,15.20
2017,09,29,13,11,15.20
2017,09,29,13,12,15.20
2017,09,29,13,13,15.20
2017,09,29,13,14,15.30
2017,09,29,13,15,15.30
2017,09,29,13,16,15.30
2017,09,29,13,17,15.40
2017,09,29,13,18,15.40
2017,09,29,13,19,15.40
2017,09,29,13,20,15.40
2017,09,29,13,21,15.40
2017,09,29,13,22,15.40
2017,09,29,13,23,15.40
2017,09,29,13,24,15.40
2017,09,29,13,25,15.40
2017,09,29,13,26,15.30
2017,09,29,13,27,15.30
2017,09,29,13,28,15.30
2017,09,29,13,29,15.30
2017,09,29,13,30,15.30
2017,09,29,13,31,15.30
2017,09,29,13,32,15.30
2017,09,29,13,33,15.20
2017,09,29,13,34,15.20
2017,09,29,13,35,15.20
2017,09,29,13,36,15.20
2017,09,29,13,37,15.20
2017,09,29,13,38,15.20
2017,09,29,13,39,15.20
2017,09,29,13,40,15.10
2017,09,29,13,41,15.10
2017,09,29,13,42,15.10
2017,09,29,13,43,15.10
2017,09,29,13,44,15.00
2017,09,29,13,45,15.00
2017,09,29,13,46,15.10
2017,09,29,13,47,15.10
2017,09,29,13,48,15.10
2017,09,29,13,49,15.20
2017,09,29,13,50,15.20
2017,09,29,13,51,15.20
2017,09,29,13,52,15.30
2017,09,29,13,53,15.30
2017,09,29,13,54,15.40
2017,09,29,13,55,15.40
2017,09,29,13,56,15.40
2017,09,29,13,57,15.50
2017,09,29,13,58,15.50
2017,09,29,13,59,15.50
2017,09,29,14,00,15.50
2017,09,29,14,01,15.50
2017,09,29,14,02,15.50
2017,09,29,14,03,15.60
2017,09,29,14,04,15.60
2017,09,29,14,05,15.70
2017,09,29,14,06,15.70
2017,09,29,14,07,15.70
2017,09,29,14,08,15.60
2017,09,29,14,09,15.60
2017,09,29,14,10,15.60
2017,09,29,14,11,15.60
2017,09,29,14,12,15.60
2017,09,29,14,13,15.60
2017,09,29,14,14,15.70
2017,09,29,14,15,15.70
2017,09,29,14,16,15.70
2017,09,29,14,17,15.70
2017,09,29,14,18,15.80
2017,09,29,14,19,15.80
2017,09,29,14,20,15.80
2017,09,29,14,21,15.80
2017,09,29,14,22,15.80
2017,09,29,14,23,15.90
2017,09,29,14,24,15.80
2017,09,29,14,25,15.80
2017,09,29,14,26,15.80
2017,09,29,14,27,15.80
2017,09,29,14,28,15.90
2017,09,29,14,29,15.90
2017,09,29,14,30,15.90
2017,09,29,14,31,15.90
2017,09,29,14,32,15.80
2017,09,29,14,33,15.80
2017,09,29,14,34,15.80
2017,09,29,14,35,15.80
2017,09,29,14,36,15.90
2017,09,29,14,37,15.90
2017,09,29,14,38,15.90
2017,09,29,14,39,15.90
2017,09,29,14,40,15.80
2017,09,29,14,41,15.80
2017,09,29,14,42,15.80
2017,09,29,14,43,15.80
2017,09,29,14,44,15.80
2017,09,29,14,45,15.70
2017,09,29,14,46,15.70
2017,09,29,14,47,15.70
2017,09,29,14,48,15.70
2017,09,29,14,49,15.70
2017,09,29,14,50,15.70
2017,09,29,14,51,15.70
2017,09,29,14,52,15.70
2017,09,29,14,53,15.70
2017,09,29,14,54,15.70
2017,09,29,14,55,15.60
2017,09,29,14,56,15.60
2017,09,29,14,57,15.60
2017,09,29,14,58,15.60
2017,09,29,14,59,15.60
2017,09,29,15,00,15.60
2017,09,29,15,01,15.60
2017,09,29,15,02,15.60
2017,09,29,15,03,15.50
2017,09,29,15,04,15.50
2017,09,29,15,05,15.50
2017,09,29,15,06,15.60
2017,09,29,15,07,15.60
2017,09,29,15,08,15.60
2017,09,29,15,09,15.60
2017,09,29,15,10,15.50
2017,09,29,15,11,15.40
2017,09,29,15,12,15.40
2017,09,29,15,13,15.40
2017,09,29,15,14,15.40
2017,09,29,15,15,15.40
2017,09,29,15,16,15.40
2017,09,29,15,17,15.40
2017,09,29,15,18,15.40
2017,09,29,15,19,15.40
2017,09,29,15,20,15.40
2017,09,29,15,21,15.40
2017,09,29,15,22,15.50
2017,09,29,15,23,15.50
2017,09,29,15,24,15.50
2017,09,29,15,25,15.40
2017,09,29,15,26,15.50
2017,09,29,15,27,15.50
2017,09,29,15,28,15.60
2017,09,29,15,29,15.60
2017,09,29,15,30,15.60
2017,09,29,15,31,15.70
2017,09,29,15,32,15.70
2017,09,29,15,33,15.70
2017,09,29,15,34,15.60
2017,09,29,15,35,15.60
2017,09,29,15,36,15.60
2017,09,29,15,37,15.50
2017,09,29,15,38,15.60
2017,09,29,15,39,15.60
2017,09,29,15,40,15.60
2017,09,29,15,41,15.70
2017,09,29,15,42,15.70
2017,09,29,15,43,15.80
2017,09,29,15,44,15.80
2017,09,29,15,45,15.90
2017,09,29,15,46,16.00
2017,09,29,15,47,16.00
2017,09,29,15,48,16.10
2017,09,29,15,49,16.20
2017,09,29,15,50,16.30
2017,09,29,15,51,16.30
2017,09,29,15,52,16.30
2017,09,29,15,53,16.40
2017,09,29,15,54,16.40
2017,09,29,15,55,16.40
2017,09,29,15,56,16.40
2017,09,29,15,57,16.40
2017,09,29,15,58,16.40
2017,09,29,15,59,16.40
2017,09,29,16,00,16.40
2017,09,29,16,01,16.40
2017,09,29,16,02,16.40
2017,09,29,16,03,16.50
2017,09,29,16,04,16.50
2017,09,29,16,05,16.50
2017,09,29,16,06,16.60
2017,09,29,16,07,16.60
2017,09,29,16,08,16.70
2017,09,29,16,09,16.70
2017,09,29,16,10,16.80
2017,09,29,16,11,16.80
2017,09,29,16,12,16.80
2017,09,29,16,13,16.80
2017,09,29,16,14,16.80
2017,09,29,16,15,16.90
2017,09,29,16,16,16.90
2017,09,29,16,17,17.00
2017,09,29,16,18,17.10
2017,09,29,16,19,17.20
2017,09,29,16,20,17.20
2017,09,29,16,21,17.20
2017,09,29,16,22,17.30
2017,09,29,16,23,17.30
2017,09,29,16,24,17.30
2017,09,29,16,25,17.30
2017,09,29,16,26,17.40
2017,09,29,16,27,17.40
2017,09,29,16,28,17.40
2017,09,29,16,29,17.40
2017,09,29,16,30,17.40
2017,09,29,16,31,17.40
2017,09,29,16,32,17.40
2017,09,29,16,33,17.30
2017,09,29,16,34,17.30
2017,09,29,16,35,17.30
2017,09,29,16,36,17.30
2017,09,29,16,37,17.40
2017,09,29,16,38,17.40
2017,09,29,16,39,17.40
2017,09,29,16,40,17.40
2017,09,29,16,41,17.40
2017,09,29,16,42,17.50
2017,09,29,16,43,17.50
2017,09,29,16,44,17.60
2017,09,29,16,45,17.70
2017,09,29,16,46,17.70
2017,09,29,16,47,17.70
2017,09,29,16,48,17.80
2017,09,29,16,49,17.80
2017,09,29,16,50,17.80
2017,09,29,16,51,17.80
2017,09,29,16,52,17.80
2017,09,29,16,53,17.80
2017,09,29,16,54,17.80
2017,09,29,16,55,17.90
2017,09,29,16,56,17.90
2017,09,29,16,57,17.90
2017,09,29,16,58,17.90
2017,09,29,16,59,17.90
2017,09,29,17,00,17.90
2017,09,29,17,01,17.90
2017,09,29,17,02,17.90
2017,09,29,17,03,17.90
2017,09,29,17,04,18.00
2017,09,29,17,05,17.90
2017,09,29,17,06,17.90
2017,09,29,17,07,17.90
2017,09,29,17,08,17.80
2017,09,29,17,09,17.80
2017,09,29,17,10,17.70
2017,09,29,17,11,17.70
2017,09,29,17,12,17.70
2017,09,29,17,13,17.60
2017,09,29,17,14,17.60
2017,09,29,17,15,17.50
2017,09,29,17,16,17.50
2017,09,29,17,17,17.50
2017,09,29,17,18,17.40
2017,09,29,17,19,17.40
2017,09,29,17,20,17.40
2017,09,29,17,21,17.40
2017,09,29,17,22,17.40
2017,09,29,17,23,17.40
2017,09,29,17,24,17.40
2017,09,29,17,25,17.40
2017,09,29,17,26,17.40
2017,09,29,17,27,17.40
2017,09,29,17,28,17.40
2017,09,29,17,29,17.40
2017,09,29,17,30,17.40
2017,09,29,17,31,17.40
2017,09,29,17,32,17.40
2017,09,29,17,33,17.40
2017,09,29,17,34,17.40
2017,09,29,17,35,17.40
2017,09,29,17,36,17.40
2017,09,29,17,37,17.40
2017,09,29,17,38,17.40
2017,09,29,17,39,17.30
2017,09,29,17,40,17.30
2017,09,29,17,41,17.30
2017,09,29,17,42,17.30
2017,09,29,17,43,17.30
2017,09,29,17,44,17.30
2017,09,29,17,45,17.20
2017,09,29,17,46,17.20
2017,09,29,17,47,17.20
2017,09,29,17,48,17.20
2017,09,29,17,49,17.20
2017,09,29,17,50,17.10
2017,09,29,17,51,17.10
2017,09,29,17,52,17.10
2017,09,29,17,53,17.10
2017,09,29,17,54,17.00
2017,09,29,17,55,17.00
2017,09,29,17,56,16.90
2017,09,29,17,57,16.90
2017,09,29,17,58,16.80
2017,09,29,17,59,16.80
2017,09,29,18,00,16.80
2017,09,29,18,01,16.80
2017,09,29,18,02,16.80
2017,09,29,18,03,16.70
2017,09,29,18,04,16.70
2017,09,29,18,05,16.60
2017,09,29,18,06,16.60
2017,09,29,18,07,16.60
2017,09,29,18,08,16.50
2017,09,29,18,09,16.50
2017,09,29,18,10,16.40
2017,09,29,18,11,16.40
2017,09,29,18,12,16.30
2017,09,29,18,13,16.30
2017,09,29,18,14,16.30
2017,09,29,18,15,16.20
2017,09,29,18,16,16.20
2017,09,29,18,17,16.20
2017,09,29,18,18,16.10
2017,09,29,18,19,16.10
2017,09,29,18,20,16.10
2017,09,29,18,21,16.10
2017,09,29,18,22,16.10
2017,09,29,18,23,16.10
2017,09,29,18,24,16.00
2017,09,29,18,25,16.00
2017,09,29,18,26,16.00
2017,09,29,18,27,15.90
2017,09,29,18,28,15.90
2017,09,29,18,29,15.90
2017,09,29,18,30,15.90
2017,09,29,18,31,15.90
2017,09,29,18,32,15.90
2017,09,29,18,33,15.90
2017,09,29,18,34,15.90
2017,09,29,18,35,15.90
2017,09,29,18,36,15.80
2017,09,29,18,37,15.80
2017,09,29,18,38,15.80
2017,09,29,18,39,15.70
2017,09,29,18,40,15.70
2017,09,29,18,41,15.70
2017,09,29,18,42,15.70
2017,09,29,18,43,15.70
2017,09,29,18,44,15.70
2017,09,29,18,45,15.70
2017,09,29,18,46,15.60
2017,09,29,18,47,15.60
2017,09,29,18,48,15.60
2017,09,29,18,49,15.50
2017,09,29,18,50,15.50
2017,09,29,18,51,15.50
2017,09,29,18,52,15.50
2017,09,29,18,53,15.50
2017,09,29,18,54,15.60
2017,09,29,18,55,15.60
2017,09,29,18,56,15.60
2017,09,29,18,57,15.60
2017,09,29,18,58,15.60
2017,09,29,18,59,15.60
2017,09,29,19,00,15.60
2017,09,29,19,01,15.60
2017,09,29,19,02,15.60
2017,09,29,19,03,15.60
2017,09,29,19,04,15.70
2017,09,29,19,05,15.70
2017,09,29,19,06,15.70